Weather reports worldwide

Advertisment
Warcop, United Kingdom (3226): temperature & dewpoint: 17.09.2020 07:00:00 - 23.09.2020 07:00:00 (BST)Warcop, United Kingdom (3226): temperature -20cm & temperature -100cm: 17.09.2020 07:00:00 - 23.09.2020 07:00:00 (BST)Warcop, United Kingdom (3226): wind speed & gusts: 17.09.2020 07:00:00 - 23.09.2020 07:00:00 (BST)Warcop, United Kingdom (3226): wind direction: 17.09.2020 07:00:00 - 23.09.2020 07:00:00 (BST)Warcop, United Kingdom (3226): reduced air pressure: 17.09.2020 07:00:00 - 23.09.2020 07:00:00 (BST)Warcop, United Kingdom (3226): visibility: 17.09.2020 07:00:00 - 23.09.2020 07:00:00 (BST)Warcop, United Kingdom (3226): precipitation: 17.09.2020 07:00:00 - 23.09.2020 07:00:00 (BST)
Date & Time tt [°C] td [°C] tt -20cm [°C] tt -100cm [°C] ff [km/h] ff [kn] fx [km/h] fx [kn] dd ppp [hPa] vv [km] rr [mm]
23.09.2020 07:00:00 9,5 9,3 - - 4 2 - - WNW 999,3 27 -
23.09.2020 06:00:00 9,9 9,7 - - 11 6 - - W 999,8 0,4 0,4
23.09.2020 05:00:00 10,0 9,7 - - 8 4 - - WNW 999,5 1,9 0,2
23.09.2020 04:00:00 10,0 9,6 - - 5 3 - - N 999,6 50 0,8
23.09.2020 03:00:00 10,1 9,5 - - 9 5 - - NNW 1000,0 12 3,2
23.09.2020 02:00:00 11,2 10,7 - - 15 8 - - NNW 999,6 5 5,2
23.09.2020 01:00:00 12,9 12,0 - - 15 8 - - SW 999,1 50 0,0
23.09.2020 00:00:00 12,8 12,1 - - 24 13 - - SW 999,1 50 0,0
22.09.2020 23:00:00 13,1 12,3 - - 26 14 - - SW 999,7 18 0,0
22.09.2020 22:00:00 13,2 12,3 - - 24 13 - - SW 1000,1 11 0,2
22.09.2020 21:00:00 13,3 12,6 - - 24 13 - - SW 1000,8 19 0,0
22.09.2020 20:00:00 13,3 12,7 - - 26 14 - - SW 1000,9 11 0,4
22.09.2020 19:00:00 13,3 12,3 - - 22 12 - - SW 1001,6 9 0,0
22.09.2020 18:00:00 13,4 12,0 - - 22 12 - - SW 1002,2 35 0,0
22.09.2020 17:00:00 13,0 11,9 - - 13 7 - - SW 1002,9 5 0,0
22.09.2020 16:00:00 12,9 11,7 - - 21 11 - - SW 1003,9 12 0,0
22.09.2020 15:00:00 13,1 11,8 - - 24 13 50 27 WSW 1004,8 15 0,0
22.09.2020 14:00:00 13,2 12,6 - - 24 13 50 27 SW 1005,2 6 0,0
22.09.2020 13:00:00 14,3 12,3 - - 22 12 - - SW 1005,4 11 0,0
22.09.2020 12:00:00 14,1 12,3 - - 22 12 - - SW 1005,7 11 0,0
22.09.2020 11:00:00 13,6 11,8 - - 21 11 - - SW 1006,3 12 0,0
22.09.2020 10:00:00 13,7 11,3 13,7 13,7 16 9 - - SW 1006,9 14 0,0
22.09.2020 09:00:00 12,6 11,3 - - 8 4 - - SSE 1007,5 10 0,0
22.09.2020 08:00:00 12,6 11,4 - - 11 6 - - SSE 1008,1 10 0,0
22.09.2020 07:00:00 11,7 11,4 - - 11 6 - - SSW 1008,9 2,3 0,0
22.09.2020 06:00:00 12,0 11,6 - - 8 4 - - WSW 1009,4 2,0 0,0
22.09.2020 05:00:00 11,8 11,2 - - 5 3 - - S 1010,1 5 0,0
22.09.2020 04:00:00 11,5 11,0 - - 8 4 - - SSE 1011,0 8 0,0
22.09.2020 03:00:00 11,0 10,3 - - 5 3 - - S 1012,0 7 0,0
22.09.2020 02:00:00 11,3 10,3 - - 8 4 - - SW 1012,7 9 0,0
22.09.2020 01:00:00 11,4 10,4 - - 5 3 - - S 1013,1 9 0,0
22.09.2020 00:00:00 11,7 10,7 - - 5 3 - - SSW 1013,7 11 0,0
21.09.2020 23:00:00 11,3 10,8 - - 4 2 - - NE 1014,4 7 0,0
21.09.2020 22:00:00 10,8 9,8 - - 0 0 - - N 1014,6 10 0,0
21.09.2020 21:00:00 11,2 9,9 - - 2 1 - - SW 1014,6 16 0,0
21.09.2020 20:00:00 12,5 10,8 - - 15 8 - - WSW 1014,5 22 0,0
21.09.2020 19:00:00 13,3 11,4 - - 16 9 - - WSW 1014,4 24 0,0
21.09.2020 18:00:00 15,1 12,2 - - 16 9 - - SW 1014,5 24 0,0
21.09.2020 17:00:00 15,7 12,3 - - 16 9 - - SW 1014,7 18 0,0
21.09.2020 16:00:00 16,6 11,9 - - 18 10 - - SW 1015,3 35 0,0
21.09.2020 15:00:00 16,2 11,9 - - 21 11 - - SW 1015,6 26 0,0
21.09.2020 14:00:00 15,8 12,1 - - 16 9 - - SW 1016,1 24 0,0
21.09.2020 13:00:00 15,2 11,9 - - 13 7 - - SW 1016,5 15 0,0
21.09.2020 12:00:00 13,2 10,7 - - 13 7 - - SSW 1016,9 16 0,0
21.09.2020 11:00:00 11,6 9,6 - - 13 7 - - SW 1017,8 14 0,0
21.09.2020 10:00:00 12,0 9,3 - - 5 3 - - WSW 1017,9 18 0,0
21.09.2020 09:00:00 10,7 8,3 - - 2 1 - - E 1018,0 27 0,0
21.09.2020 08:00:00 7,4 6,5 - - 2 1 - - E 1018,4 23 0,0
21.09.2020 07:00:00 6,9 6,2 - - 4 2 - - ENE 1018,5 22 0,0
21.09.2020 06:00:00 6,6 5,8 - - 5 3 - - E 1018,7 23 0,0
21.09.2020 05:00:00 5,9 5,0 - - 5 3 - - E 1019,0 22 0,0
21.09.2020 04:00:00 5,7 5,0 - - 11 6 - - SE 1019,5 50 0,0
21.09.2020 03:00:00 6,0 5,1 - - 5 3 - - SSE 1020,3 50 0,0
21.09.2020 02:00:00 4,8 3,9 - - 8 4 - - SE 1021,0 50 0,0
21.09.2020 01:00:00 5,6 3,2 - - 4 2 - - E 1021,1 50 0,0
21.09.2020 00:00:00 6,8 5,0 - - 9 5 - - SE 1021,2 50 0,0
20.09.2020 23:00:00 10,6 7,2 - - 15 8 - - SSE 1021,1 50 0,0
20.09.2020 22:00:00 11,2 7,0 - - 18 10 - - SE 1021,4 50 0,0
20.09.2020 21:00:00 11,1 7,4 - - 16 9 - - SSE 1021,6 50 0,0
20.09.2020 20:00:00 9,2 6,7 - - 5 3 - - SE 1022,2 50 0,0
20.09.2020 19:00:00 11,2 8,5 - - 15 8 - - SSE 1021,8 50 0,0
20.09.2020 18:00:00 13,1 9,6 - - 22 12 - - SSE 1021,6 50 0,0
20.09.2020 17:00:00 14,4 10,6 - - 22 12 - - SE 1022,0 40 0,0
20.09.2020 16:00:00 14,9 10,4 - - 22 12 - - SE 1022,2 50 0,0
20.09.2020 15:00:00 15,1 11,2 - - 24 13 - - SE 1022,1 50 0,0
20.09.2020 14:00:00 15,6 10,7 - - 18 10 - - ESE 1022,4 50 0,0
20.09.2020 13:00:00 15,6 10,2 - - 18 10 - - E 1022,9 25 0,0
20.09.2020 12:00:00 14,8 10,7 - - 18 10 - - NE 1023,4 50 0,0
20.09.2020 11:00:00 14,2 10,9 - - 24 13 - - ENE 1023,8 40 0,0
20.09.2020 10:00:00 13,4 9,6 - - 9 5 - - NW 1023,7 50 0,0
20.09.2020 09:00:00 11,7 9,4 - - 24 13 - - ENE 1023,7 50 0,0
20.09.2020 08:00:00 11,8 9,3 - - 16 9 - - E 1023,8 50 0,0
20.09.2020 07:00:00 11,4 9,1 - - 18 10 - - ENE 1023,7 50 0,0
20.09.2020 06:00:00 11,9 9,6 - - 11 6 - - SE 1023,4 50 0,0
20.09.2020 05:00:00 12,0 9,9 - - 5 3 - - WNW 1023,7 50 0,0
20.09.2020 04:00:00 12,4 9,6 - - 9 5 - - ESE 1024,0 50 0,0
20.09.2020 03:00:00 12,4 8,9 - - 11 6 - - E 1024,1 50 0,0
20.09.2020 02:00:00 12,0 8,5 - - 15 8 - - SE 1024,1 50 0,0
20.09.2020 01:00:00 11,6 8,7 - - 18 10 - - ESE 1024,0 50 0,0
20.09.2020 00:00:00 11,5 8,0 - - 29 16 50 27 ENE 1023,9 50 0,0
19.09.2020 23:00:00 11,9 8,2 - - 21 11 63 34 ESE 1024,4 50 0,0
19.09.2020 22:00:00 12,0 8,2 - - 21 11 55 30 E 1024,3 50 0,0
19.09.2020 21:00:00 11,2 8,4 - - 18 10 - - ENE 1023,6 50 0,0
19.09.2020 20:00:00 11,1 7,6 - - 5 3 68 37 SSE 1023,2 50 0,0
19.09.2020 19:00:00 12,0 8,3 - - 57 31 68 37 ENE 1021,8 45 0,0
19.09.2020 18:00:00 13,5 8,1 - - 34 18 57 31 ENE 1022,0 50 0,0
19.09.2020 17:00:00 14,6 7,4 - - 24 13 52 28 E 1022,6 45 0,0
19.09.2020 16:00:00 15,0 7,8 - - 26 14 55 30 E 1022,9 35 0,0
19.09.2020 15:00:00 15,7 8,2 - - 22 12 55 30 E 1022,9 35 0,0
19.09.2020 14:00:00 15,3 7,8 - - 34 18 54 29 ENE 1023,0 35 0,0
19.09.2020 13:00:00 15,2 7,0 - - 11 6 - - WNW 1023,6 30 0,0
19.09.2020 12:00:00 14,2 5,5 - - 15 8 46 25 NW 1024,3 40 0,0
19.09.2020 11:00:00 12,2 6,3 - - 15 8 46 25 ESE 1025,0 45 0,0
19.09.2020 10:00:00 11,0 6,4 13,7 14,0 24 13 61 33 ENE 1025,1 50 0,0
19.09.2020 09:00:00 10,7 6,3 - - 26 14 54 29 ENE 1024,5 45 0,0
19.09.2020 08:00:00 10,1 6,2 - - 21 11 57 31 E 1024,7 45 0,0
19.09.2020 07:00:00 10,2 6,0 - - 16 9 - - NW 1024,3 50 0,0
19.09.2020 06:00:00 10,3 6,0 - - 18 10 48 26 E 1024,2 50 0,0
19.09.2020 05:00:00 10,6 6,4 - - 34 18 55 30 ENE 1024,4 50 0,0
19.09.2020 04:00:00 10,7 6,2 - - 24 13 59 32 NE 1024,8 50 0,0
19.09.2020 03:00:00 10,8 6,3 - - 31 17 57 31 E 1024,8 50 0,0
19.09.2020 02:00:00 11,3 6,4 - - 15 8 52 28 WSW 1025,7 50 0,0
19.09.2020 01:00:00 11,7 6,2 - - 15 8 54 29 WNW 1026,1 50 0,0
19.09.2020 00:00:00 11,5 6,6 - - 24 13 57 31 E 1026,3 50 0,0
18.09.2020 23:00:00 11,1 6,8 - - 24 13 54 29 E 1026,8 50 0,0
18.09.2020 22:00:00 11,2 6,9 - - 24 13 67 36 ESE 1026,6 50 0,0
18.09.2020 21:00:00 10,9 7,0 - - 28 15 50 27 ESE 1026,9 50 0,0
18.09.2020 20:00:00 10,9 7,2 - - 26 14 - - E 1026,2 50 0,0
18.09.2020 19:00:00 11,7 7,6 - - 34 18 48 26 ENE 1026,1 50 0,0
18.09.2020 18:00:00 13,3 8,0 - - 29 16 52 28 E 1025,6 50 0,0
18.09.2020 17:00:00 14,2 8,6 - - 29 16 46 25 E 1025,7 45 0,0
18.09.2020 16:00:00 14,3 8,4 - - 16 9 - - E 1026,5 50 0,0
18.09.2020 15:00:00 14,9 8,1 - - 22 12 - - SE 1027,0 40 0,0
18.09.2020 14:00:00 15,6 7,2 - - 16 9 - - ESE 1027,1 40 0,0
18.09.2020 13:00:00 15,4 8,4 - - 11 6 - - E 1027,4 40 0,0
18.09.2020 12:00:00 14,3 4,0 - - 8 4 - - SSE 1027,5 40 0,0
18.09.2020 11:00:00 13,9 6,1 - - 11 6 - - S 1028,0 50 0,0
18.09.2020 10:00:00 11,4 7,4 14,0 14,0 15 8 - - SSW 1028,7 35 0,0
18.09.2020 09:00:00 10,0 7,0 - - 21 11 - - S 1028,8 40 0,0
18.09.2020 08:00:00 10,5 5,0 - - 5 3 - - NE 1028,6 50 0,0
18.09.2020 07:00:00 9,5 4,8 - - 9 5 - - ESE 1028,7 4,9 0,0
18.09.2020 06:00:00 10,2 5,6 - - 21 11 - - SSE 1028,1 50 0,0
18.09.2020 05:00:00 9,8 6,8 - - 18 10 - - SE 1028,3 50 0,0
18.09.2020 04:00:00 10,0 6,5 - - 18 10 - - SE 1028,5 40 0,0
18.09.2020 03:00:00 10,2 6,8 - - 21 11 - - SE 1028,7 50 0,0
18.09.2020 02:00:00 10,2 6,9 - - 21 11 - - SE 1029,2 45 0,0
18.09.2020 01:00:00 10,6 7,0 - - 21 11 - - SSE 1029,2 45 0,0
18.09.2020 00:00:00 10,6 8,4 - - 13 7 - - SE 1029,9 35 0,0
17.09.2020 23:00:00 11,2 8,7 - - 16 9 - - SE 1029,7 30 0,0
17.09.2020 22:00:00 11,4 8,7 - - 21 11 - - SE 1030,0 30 0,0
17.09.2020 21:00:00 12,7 7,4 - - 22 12 - - SE 1029,4 40 0,0
17.09.2020 20:00:00 13,2 7,2 - - 16 9 - - SE 1029,2 50 0,0
17.09.2020 19:00:00 13,8 8,1 - - 16 9 - - ESE 1029,2 45 0,0
17.09.2020 18:00:00 15,5 8,9 - - 15 8 - - ESE 1029,2 40 0,0
17.09.2020 17:00:00 17,0 9,0 - - 13 7 - - SSE 1029,1 35 0,0
17.09.2020 16:00:00 17,5 8,6 - - 13 7 - - SSE 1029,3 45 0,0
17.09.2020 15:00:00 17,5 9,5 - - 13 7 - - SSE 1029,6 35 0,0
17.09.2020 14:00:00 16,9 8,5 - - 13 7 - - SSE 1030,4 30 0,0
17.09.2020 13:00:00 16,5 8,3 - - 15 8 - - SSE 1030,7 35 0,0
17.09.2020 12:00:00 15,7 6,7 - - 16 9 - - SE 1030,7 30 0,0
17.09.2020 11:00:00 14,5 8,9 - - 18 10 - - SE 1030,9 45 0,0
17.09.2020 10:00:00 12,9 7,2 14,2 14,0 22 12 - - SSE 1031,4 40 0,0
17.09.2020 09:00:00 11,7 6,5 - - 15 8 - - SSE 1031,9 35 0,0
17.09.2020 08:00:00 9,5 6,1 - - 4 2 - - NE 1032,5 45 0,0
17.09.2020 07:00:00 8,7 5,0 - - 0 0 - - N 1032,2 50 0,0

tt = temperature
td = dewpoint
tt -20cm = temperature -20cm
tt -100cm = temperature -100cm
ff = wind speed
fx = gusts
dd = wind direction
ppp = reduced air pressure
vv = visibility
rr = precipitation

Next stations